Tracking 19192 objects as of 19-Jun-2018
HD Live streaming from Space Station
objects crossing your sky now

COSMOS 2251 DEB

Track COSMOS 2251 DEB now!
10-day predictions


NORAD ID: 35451
Int'l Code: 1993-036AKV
Perigee: 566.0 km
Apogee: 716.8 km
Inclination: 73.9 °
Period: 97.4 minutes
Semi major axis: 7012 km
RCS: 0.0039 m2 (small)
Launch date: June 16, 1993
Source: Commonwealth of Independent States (former USSR) (CIS)
Launch site: PLESETSK MISSILE AND SPACE COMPLEX (PKMTR)

Note: This is SATELLITE DEBRIS
aabbcc
Your satellite tracking list
Your tracking list is empty




NASA's NSSDC Master Catalog

Two Line Element Set (TLE):
1 35451U 93036AKV 18167.07450050  .00000356  00000-0  49467-4 0  9991
2 35451  73.9444 195.5876 0107503  11.6723 348.6905 14.78426209492438
Source of the keplerian elements: AFSPC